Location: Newark
(48.1500°N, 13.1167°E)
Time: 07:07:55
(UTC+00:00)

KAITUO 1B - Pass Details

Date: 02 December 2021
Orbit: 486 x 507 km, 97.4° (Epoch: 18 January)

Event Time Altitude Azimuth Distance (km) Brightness Sun altitude
Rises 17:42:04 0° 203° (SSW) 2,594 ? -23.6°
Reaches altitude 10° 17:44:38 10° 223° (SW) 1,720 ? -24.0°
Maximum altitude 17:47:15 18° 268° (W) 1,291 ? -24.5°
Drops below altitude 10° 17:49:55 10° 313° (NW) 1,738 ? -24.9°
Sets 17:52:33 0° 333° (NNW) 2,633 ? -25.3°
